Weather History for Pasco, WA

Change the Weather History Date:

Saturday, October 26, 2013

  Actual Average Record
Temperature  
Mean Temperature 48 °F 48 °F  
Max Temperature 63 °F 61 °F 70 °F (1998)
Min Temperature 33 °F 36 °F 20 °F (2002)
Degree Days  
Heating Degree Days 17 17  
Month to date heating degree days 382 318  
Since 1 July heating degree days 450 429  
Cooling Degree Days 0 0  
Month to date cooling degree days 0 0  
Year to date cooling degree days 995 709  
Moisture  
Dew Point 39 °F    
Average Humidity 96    
Maximum Humidity 100    
Minimum Humidity 92    
Precipitation  
Precipitation 0.00 in 0.02 in 0.23 in (1991)
Month to date precipitation 0.03 0.55  
Year to date precipitation 4.34 6.43  
Snow  
Snow 0.00 in - - ()
Snow Depth 0.00 in    
Sea Level Pressure  
Sea Level Pressure 30.26 in    
Wind  
Wind Speed 1 mph (WNW)    
Max Wind Speed 7 mph    
Max Gust Speed 7 mph    
Visibility 4 miles    
Events Fog    
T = Trace of Precipitation, MM = Missing Value Source: NWS Daily Summary

Daily Weather History Graph

Daily Weather History Graph

Search for Another Location

Airport:

Trip Planner

Search our weather history database for the weather conditions in past years. The results will help you decide how hot, cold, wet, or windy it might be!

Date:

Astronomy

Oct. 26, 2013 Rise Set
Actual Time 7:29 AM PDT 5:50 PM PDT
Civil Twilight 6:58 AM PDT 6:21 PM PDT
Nautical Twilight 6:23 AM PDT 6:56 PM PDT
Astronomical Twilight 5:48 AM PDT 7:31 PM PDT
Moon No Moon Rise 1:50 PM PDT (10/26)
Length of Visible Light 11h 23m
Length of Day
10h 21m
Waning Gibbous, 52% of the Moon is Illuminated
Oct 26
Waning Gibbous
Oct 26
Last Quarter
Nov 3
New
Nov 9
First Quarter
Nov 17
Full

Hourly Weather History & Observations

Time (PDT) Temp. Windchill Dew Point Humidity Pressure Visibility Wind Dir Wind Speed Gust Speed Precip Events Conditions
12:53 AM 37.9 °F - 37.9 °F 100% 30.27 in 4.0 mi Calm Calm - N/A   Clear
1:53 AM 37.0 °F 34.5 °F 36.0 °F 96% 30.27 in 4.0 mi North 3.5 mph - N/A   Clear
2:53 AM 37.0 °F 34.5 °F 36.0 °F 96% 30.29 in 3.0 mi NNW 3.5 mph - N/A   Clear
3:53 AM 35.1 °F 32.2 °F 34.0 °F 96% 30.28 in 3.0 mi NNW 3.5 mph - N/A   Partly Cloudy
4:08 AM 33.8 °F 30.8 °F 33.8 °F 100% 30.28 in 3.0 mi NNW 3.5 mph - N/A   Mostly Cloudy
4:15 AM 35.6 °F - 33.8 °F 93% 30.28 in 4.0 mi Calm Calm - N/A   Scattered Clouds
4:48 AM 35.6 °F - 35.6 °F 100% 30.28 in 3.0 mi Calm Calm - N/A   Mostly Cloudy
4:51 AM 35.6 °F - 35.6 °F 100% 30.29 in 1.8 mi Calm Calm - N/A   Mostly Cloudy
4:53 AM 36.0 °F - 35.1 °F 97% 30.29 in 1.2 mi Calm Calm - N/A   Mostly Cloudy
5:02 AM 35.6 °F - 35.6 °F 100% 30.29 in 0.8 mi Calm Calm - N/A   Overcast
5:34 AM 35.6 °F - 35.6 °F 100% 30.29 in 1.0 mi Calm Calm - N/A   Overcast
5:49 AM 35.6 °F - 35.6 °F 100% 30.29 in 2.0 mi Calm Calm - N/A   Mostly Cloudy
5:53 AM 35.1 °F - 35.1 °F 100% 30.30 in 2.5 mi Calm Calm - N/A   Scattered Clouds
6:01 AM 35.6 °F 32.8 °F 33.8 °F 93% 30.29 in 3.0 mi NNW 3.5 mph - N/A   Partly Cloudy
6:53 AM 36.0 °F - 35.1 °F 97% 30.30 in 6.0 mi Calm Calm - N/A   Overcast
7:00 AM 35.6 °F - 35.6 °F 100% 30.30 in 6.0 mi Calm Calm - N/A   Clear
7:10 AM 33.8 °F - 33.8 °F 100% 30.30 in 4.0 mi Calm Calm - N/A   Scattered Clouds
7:18 AM 33.8 °F - 33.8 °F 100% 30.30 in 2.5 mi Calm Calm - N/A   Mostly Cloudy
7:30 AM 33.8 °F - 33.8 °F 100% 30.30 in 0.8 mi Calm Calm - N/A   Overcast
7:40 AM 33.8 °F - 33.8 °F 100% 30.30 in 0.2 mi Calm Calm - N/A Fog Fog
7:53 AM 36.0 °F - 35.1 °F 97% 30.32 in 0.2 mi Calm Calm - N/A Fog Fog
8:53 AM 39.0 °F - 39.0 °F 100% 30.32 in 0.2 mi Calm Calm - N/A Fog Fog
9:53 AM 39.0 °F - 39.0 °F 100% 30.33 in 0.1 mi Calm Calm - N/A Fog Fog
10:53 AM 41.0 °F - 41.0 °F 100% 30.33 in 0.8 mi Calm Calm - N/A   Mist
10:57 AM 42.8 °F - 42.8 °F 100% 30.33 in 2.0 mi Calm Calm - N/A   Overcast
11:04 AM 42.8 °F - 42.8 °F 100% 30.33 in 1.0 mi Calm Calm - N/A   Mostly Cloudy
11:22 AM 46.4 °F - 42.8 °F 87% 30.33 in 2.0 mi Calm Calm - N/A   Partly Cloudy
11:53 AM 50.0 °F - 44.1 °F 80% 30.32 in 8.0 mi WSW 3.5 mph - N/A   Clear
12:53 PM 55.0 °F - 45.0 °F 69% 30.29 in 10.0 mi Calm Calm - N/A   Clear
1:53 PM 59.0 °F - 46.0 °F 62% 30.26 in 10.0 mi West 4.6 mph - N/A   Clear
2:53 PM 60.1 °F - 46.0 °F 60% 30.24 in 10.0 mi West 3.5 mph - N/A   Clear
3:53 PM 62.1 °F - 46.9 °F 58% 30.22 in 10.0 mi Calm Calm - N/A   Clear
4:53 PM 61.0 °F - 46.0 °F 58% 30.19 in 10.0 mi Calm Calm - N/A   Clear
5:53 PM 55.9 °F - 45.0 °F 67% 30.17 in 8.0 mi WSW 3.5 mph - N/A   Clear
6:53 PM 52.0 °F - 44.1 °F 74% 30.17 in 10.0 mi SW 3.5 mph - N/A   Clear
7:53 PM 51.1 °F - 44.1 °F 77% 30.15 in 9.0 mi Calm Calm - N/A   Clear
8:53 PM 42.1 °F - 39.9 °F 92% 30.13 in 8.0 mi Calm Calm - N/A   Clear
9:53 PM 39.9 °F - 39.0 °F 97% 30.14 in 8.0 mi Calm Calm - N/A   Clear
10:53 PM 39.9 °F 37.8 °F 37.9 °F 93% 30.12 in 7.0 mi ESE 3.5 mph - N/A   Clear
11:53 PM 37.0 °F 34.5 °F 36.0 °F 96% 30.09 in 4.0 mi ESE 3.5 mph - N/A   Clear